[Iaude] MPEC V134: 2023 VZ3 [a=1.19,e=0.28,i=23.0,H=26.5]
    mpec at marsden.cfa.harvard.edu 
    mpec at marsden.cfa.harvard.edu
       
    Thu Nov  9 08:44:45 EST 2023
    
    
  
M.P.E.C. 2023-V134                             Issued 2023 November 9, 13:43 UT
     The Minor Planet Electronic Circulars contain information on unusual
         minor planets, routine data on comets and natural satellites,
         and occasional editorial announcements.  They are published
    on behalf of Division F of the International Astronomical Union by the
          Minor Planet Center, Smithsonian Astrophysical Observatory,
                          Cambridge, MA 02138, U.S.A.
			  
             Prepared using the Tamkin Foundation Computer Network
                              MPC at CFA.HARVARD.EDU
            URL https://www.minorplanetcenter.net/    ISSN 1523-6714
                                    2023 VZ3                                    
Observations:
     K23V03Z*KC2023 11 07.67413 00 15 15.10 +23 50 27.2          19.0 GXEV134L51
     K23V03Z KC2023 11 07.67521 00 15 11.74 +23 51 09.2          19.0 GXEV134L51
     K23V03Z KC2023 11 07.67633 00 15 08.22 +23 51 54.9          19.2 GXEV134L51
     K23V03Z KC2023 11 07.71502 00 13 05.54 +24 18 10.9          19.6 GXEV134L51
     K23V03Z KC2023 11 07.71673 00 13 00.14 +24 19 19.6          19.7 GXEV134L51
     K23V03Z KC2023 11 07.71844 00 12 54.53 +24 20 29.9          19.7 GXEV134L51
     K23V03Z KC2023 11 07.72977 00 12 18.44 +24 28 09.3          19.6 GXEV134L51
     K23V03Z KC2023 11 07.73148 00 12 12.99 +24 29 18.5          19.7 GXEV134L51
     K23V03Z NC2023 11 07.73178000 12 16.90 +24 29 11.3          19.7 GVEV134L01
     K23V03Z KC2023 11 07.73319 00 12 07.50 +24 30 27.9          19.8 GXEV134L51
     K23V03Z hC2023 11 07.73991800 11 50.90 +24 34 43.4          20.5 GVEV134L01
     K23V03Z hC2023 11 07.74102800 11 47.36 +24 35 28.1          20.1 GVEV134L01
     K23V03Z hC2023 11 07.74189200 11 44.60 +24 36 03.4          20.3 GVEV134L01
     K23V03Z KC2023 11 07.75508400 11 04.430+24 44 14.89         20.1 GVEV134J95
     K23V03Z KC2023 11 07.76223600 10 41.616+24 49 05.88         20.0 GVEV134J95
     K23V03Z KC2023 11 07.76953400 10 18.348+24 54 01.08         20.0 GVEV134J95
     K23V03Z KC2023 11 07.77678600 09 55.226+24 58 54.73         19.8 GVEV134J95
     K23V03Z KC2023 11 07.90204800 03 04.48 +26 22 49.1          20.5 GVEV134204
     K23V03Z IC2023 11 07.90735300 02 46.98 +26 26 17.3                VEV134204
     K23V03Z KC2023 11 08.01608123 57 11.39 +27 37 46.8          20.4 GVEV134H21
     K23V03Z KC2023 11 08.01714323 57 07.84 +27 38 28.8          20.1 GVEV134H21
     K23V03Z KC2023 11 08.01820523 57 04.27 +27 39 10.6          20.0 GVEV134H21
     K23V03Z KC2023 11 08.01926623 57 00.67 +27 39 52.1          20.3 GVEV134H21
     K23V03Z KC2023 11 08.02032823 56 57.12 +27 40 33.5          20.2 GVEV134H21
     K23V03Z KC2023 11 08.02139023 56 53.56 +27 41 15.1          20.3 GVEV134H21
     K23V03Z KC2023 11 08.06588623 54 28.59 +28 10 21.7          20.2 GXEV134858
     K23V03Z KC2023 11 08.07018423 54 14.00 +28 13 09.4          20.2 GXEV134858
     K23V03Z KC2023 11 08.07610723 53 53.85 +28 17 00.1          20.2 GXEV134858
     K23V03Z KB2023 11 08.10660 23 52 06.26 +28 36 31.0          19.9 GVEV134734
     K23V03Z KB2023 11 08.11126 23 51 50.30 +28 39 29.5          19.8 GVEV134734
     K23V03Z KB2023 11 08.11583 23 51 34.53 +28 42 25.3          20.6 GVEV134734
     K23V03Z KC2023 11 08.13061823 50 48.790+28 52 20.30         20.57GVEV134I52
     K23V03Z KC2023 11 08.13779523 50 24.000+28 56 56.10         20.87GVEV134I52
     K23V03Z KC2023 11 08.13823623 50 22.510+28 57 13.40         20.46GVEV134I52
     K23V03Z KC2023 11 08.13867823 50 21.010+28 57 30.10         20.68GVEV134I52
     K23V03Z KC2023 11 09.06102222 56 24.26 +37 38 07.6          20.6 GXEV134858
     K23V03Z KC2023 11 09.07092522 55 46.98 +37 42 55.5          20.8 GXEV134858
     K23V03Z KC2023 11 09.07900022 55 16.56 +37 46 49.3          21.0 GXEV134858
     K23V03Z KC2023 11 09.08921422 54 39.856+37 51 53.06         21.40GVEV134I52
     K23V03Z KC2023 11 09.09155022 54 31.010+37 52 59.81         20.70GVEV134I52
     K23V03Z KC2023 11 09.09271422 54 26.611+37 53 34.01         20.70GVEV134I52
Observer details:
204 Schiaparelli Observatory.  Observers L. Buzzi, G. Galli.  0.84-m f/3.5
    reflector + CCD.
734 Farpoint Observatory, Eskridge.  Observer .
858 Tebbutt Observatory, Edgewood.  Observer F. B. Zoltowski.  0.51-m f/8.1
    Schmidt-Cassegrain + CCD.
H21 Astronomical Research Observatory, Westfield.  Observer R. Holmes.
    Measurers T. Linder, R. Holmes, L. Horn.  0.76-m f/3.0 astrograph + CCD.
I52 Steward Observatory, Mt. Lemmon Station.  Observer H. Groeller.  Measurers
    E. C. Beshore, D. Fay, J. B. Fazekas, D. C. Fuls, A. R. Gibbs, A. D.
    Grauer, H. Groeller, J. K. Hogan, R. A. Kowalski, S. M. Larson, G. J.
    Leonard, D. Rankin, R. L. Seaman, F. C. Shelly, K. W. Wierzchos.  1.0-m
    prime focus + CCD.
J95 Great Shefford.  Observer P. Birtwhistle.  0.41-m f/6.3 Schmidt-Cassegrain
    + CCD.
L01 Visnjan Observatory, Tican.  Observer K. Korlevic.  1.0-m f/2.9 reflector
    + CCD.
L51 MARGO, Nauchnyi.  Observer G. Borisov.  0.50-m f/1.9 reflector + CCD.
Orbital elements:
2023 VZ3                                                 Earth MOID = 0.0241 AU
Epoch 2023 Sept. 13.0 TT = JDT 2460200.5                Veres                   
M 272.94412              (2000.0)            P               Q                  
n   0.76097325     Peri.   74.61047     -0.40485638     -0.87522891             
a   1.1882007      Node    42.57385     +0.61415759     -0.47475093             
e   0.2789772      Incl.   23.03257     +0.67742289     -0.09266018             
P   1.30           H   26.54          G   0.15           U   8                  
Residuals in seconds of arc
231107 L51  0.0   1.8+    231107 J95  0.3-  0.4+    231108 734 (0.3-  1.6+)
231107 L51  0.5+  0.3-    231107 J95  0.1+  0.2-    231108 734  0.2+  0.9+
231107 L51  0.6+  0.4-    231107 J95 (1.1+  0.1-)   231108 734  0.8-  1.1+
231107 L51  0.2-  0.0     231107 204  0.2-  0.3+    231108 I52  0.1-  0.5-
231107 L51  0.6+  0.8-    231107 204  0.0   0.3-    231108 I52  0.2-  0.2-
231107 L51  1.5-  0.1+    231108 H21  0.1-  0.0     231108 I52  0.2+  0.2+
231107 L51  0.1+  0.2+    231108 H21  0.2+  0.1+    231108 I52  0.6+  0.0
231107 L51  0.4+  0.1+    231108 H21  0.2+  0.1+    231109 858  0.8-  0.6+
231107 L01  0.6+  0.7-    231108 H21  0.2-  0.1-    231109 858  0.8-  0.5+
231107 L51  0.3+  0.3+    231108 H21  0.1+  0.5-    231109 858  0.6-  0.7+
231107 L01  0.3-  0.6+    231108 H21  0.3+  0.6-    231109 I52  0.3+  0.1-
231107 L01  0.2-  0.3+    231108 858  1.5-  0.1-    231109 I52  0.0   0.5-
231107 L01  0.3-  0.5+    231108 858  1.4-  0.3-    231109 I52  0.1-  0.3+
231107 J95  0.3+  0.5-    231108 858  1.5-  0.7-
Ephemeris:
2023 VZ3                 a,e,i = 1.19, 0.28, 23                  q = 0.8567
Date    TT    R. A. (2000) Decl.     Delta      r    Elong.  Phase     V
2023 10 10    04 01 23.5 -31 12 39   0.2371  1.1441   122.6    47.4    25.5
...
2023 10 25    03 43 02.5 -28 28 16   0.1157  1.0755   132.0    43.4    23.7
...
2023 11 02    02 51 26.0 -17 28 52   0.05494 1.0392   147.4    30.9    21.6
...
2023 11 08    23 57 56.1 +27 28 11   0.02839 1.0125   138.8    40.2    20.4
2023 11 09    23 00 01.9 +37 07 58   0.02989 1.0081   124.9    53.7    20.9
2023 11 10    21 59 35.7 +43 38 36   0.03331 1.0038   112.6    65.6    21.5
...
2023 11 16    18 37 43.4 +47 32 13   0.07118 0.9783    79.2    96.7    24.2
...
2023 11 24    17 35 50.2 +43 47 32   0.1310  0.9465    68.1   104.5    25.9
...
2023 12 09    17 03 08.1 +39 07 18   0.2420  0.8967    61.9   104.4    27.1
M. P. C. Staff               (C) Copyright 2023 MPC           M.P.E.C. 2023-V134
    
    
More information about the Iaude
mailing list